sat.trackr.live / text

‹ back to catalog

ION SCV-004

NORAD 50993 · 2022-002K

PAYLOAD ACTIVE UNKNOWN

§ Identity

Operator
Country
IT
Launch date
2022-01-13
Launch site
AFETR
Launch vehicle
Mass (kg)
RCS (m²)

External: N2YO · Heavens-Above · Gunter

§ Orbital elements

Epoch: 2026-09-20T14:26:35.784384Z

Period
94.04 min
Inclination
97.2735°
Eccentricity
0.0007660
Mean motion
15.31247434 rev/d
Perigee alt
466.8 km
Apogee alt
477.3 km
Semi-major
6,850.2 km
B*
1.0277e-4
RAAN
319.4650°
Arg perigee
26.9682°
Mean anomaly
333.1956°
Rev number
25,989

§ Raw data

ION SCV-0041 50993U 22002K   26263.60180306  .00003028  00000+0  10277-3 0  99972 50993  97.2735 319.4650 0007660  26.9682 333.1956 15.31247434259898

JSON: /api/v1/satellites/50993 · /tle

For live sub-satellite position, see the globe view (requires WebGL).

§ Visibility from observer

Set your observer location to see the next 7 days of passes ≥ 10°. The values pass through the URL so the page stays shareable.

No JS? Fill the form by hand. The geolocation button needs JavaScript.

§ Radio — SatNOGS DB

ModeDescriptionDownlinkUplink
FSK AX.100 Mode 5 Mode U - FSK 1k2 AX.100 437.515 MHz
FSK AX.100 Mode 5 Mode U - FSK1k2 AX.100 401.415 MHz
BPSK S-Band Transmitter 2.262 GHz

3 transmitters · refreshed weekly from db.satnogs.org